Location: Ellerstadt
(49.4644°N, 8.2615°E)
Time: 23:18:37
(UTC+00:00)

SL-16 R/B - Pass Details

Date: 03 March 2021
Orbit: 842 x 846 km, 71.0° (Epoch: 13 April)

Event Time Altitude Azimuth Distance (km) Brightness Sun altitude
Rises 19:32:02 0° 242° (WSW) 3,396 6.0 -23.1°
Reaches altitude 10° 19:34:46 10° 253° (WSW) 2,465 5.3 -23.5°
Maximum altitude 19:39:43 30° 314° (NW) 1,478 4.0 -24.3°
Drops below altitude 10° 19:44:41 10° 15° (NNE) 2,478 4.7 -25.0°
Sets 19:47:27 0° 26° (NNE) 3,417 5.3 -25.5°
